Regional Weather Roundup
Issued by NWS Grand Forks, ND

Home | Current Version | Previous Version | Text Only | Print | Product List | Glossary On
Versions: 1 2 3 4 5 6 7 8 9 10 11 12 13 14 15 16 17 18 19 20 21 22 23 24 25 26 27 28 29 30 31 32 33 34 35 36 37 38 39 40 41 42 43 44 45 46 47 48 49 50
991
ASUS43 KFGF 200831
RWRFGF
PRAIRIE TO PINES  WEATHER ROUNDUP
NATIONAL WEATHER SERVICE EASTERN NORTH DAKOTA/GRAND FORKS ND
300 AM CDT FRI OCT 20 2017

 **SATELLITE DATA USED TO AUGMENT SKY COVER AT AUTOMATED STATIONS**
 *****  WEATHER ACROSS EASTERN NORTH DAKOTA  *****

CITY           SKY/WX    TMP DP  RH WIND       PRES   REMARKS
GRAND FORKS    FAIR      48  41  76 S7        29.66F
GRAND FRKS AFB FAIR      44  39  83 S6        29.65F
DEVILS LAKE    FAIR      46  41  82 SE9       29.62F
FARGO          FAIR      57  48  72 S14       29.68F
WAHPETON ARPT  NOT AVBL
$$

 ***** WEATHER ACROSS CENTRAL AND WESTERN NORTH DAKOTA  *****

CITY           SKY/WX    TMP DP  RH WIND       PRES   REMARKS
BISMARCK       FAIR      43  37  79 NE10      29.58F
MINOT          FAIR      50  36  58 SE6       29.54F
JAMESTOWN      FAIR      48  43  82 S12       29.63F
MINOT AFB      FAIR      40  33  76 S5        29.52F
GARRISON         N/A     44  36  73 E5        29.55F
WILLISTON      FAIR      42  33  70 N3        29.50F
DICKINSON      FAIR      46  32  58 S13       29.51F
HETTINGER      FAIR      50  30  46 VRB3      29.57F
$$

 *****  OTHER AIRPORT OBSERVATIONS IN OUR AREA  *****

CITY           SKY/WX    TMP DP  RH WIND       PRES   REMARKS
WALHALLA       FAIR     N/A N/A N/A S6        29.62F
GRAFTON AIRPOR FAIR      43  37  81 E8        29.66F
VALLEY CITY AR FAIR      52  50  93 S12       29.66F
CANDO          FAIR      43  43 100 E5        29.61F
CAVALIER APRT  FAIR      45  39  81 S6        29.63S
GWINNER        SUNNY     55  48  76 S9        29.68F
SHEYENNE NWR     N/A     48  47  95 SE5       29.95S
ROLLA          MIX PCPN  41  32  70 S6        29.60F
 ***** THE ABOVE OBSERVATIONS ARE NON NWS ARE NOT QUALITY
       CONTROLLED AND MAY MIS-REPORT RAIN FOR SNOW...
$$

  *****  WEATHER ACROSS NORTHERN MINNESOTA  *****

CITY           SKY/WX    TMP DP  RH WIND       PRES   REMARKS
FLAG ISLAND    FAIR      52  45  76 SE8       29.70F
WARROAD        FAIR      54  45  71 S3        29.70F
ROSEAU         FAIR      48  43  81 S7        29.69F
HALLOCK        FAIR      46  39  76 SE9       29.65F
THF RVR FALLS  FAIR      51  43  74 SE9       29.71F
BAUDETTE       FAIR      48  39  71 SE6       29.74F
WASKISH        FAIR      52  43  71 SE3       29.75F
CROOKSTON      FAIR      54  46  76 S9        29.68F
STEPHEN NDAWN    N/A     45  39  81 SE6         N/A
GREENBUSH NDAW   N/A     39  37  93 SE3         N/A
$$
  *****  WEATHER ACROSS CENTRAL AND WEST MINNESOTA  *****

CITY           SKY/WX    TMP DP  RH WIND       PRES   REMARKS
FOSSTON        FAIR      55  45  67 SE8       29.72F
BEMIDJI        FAIR      53  44  71 S5        29.75F
PARK RAPIDS    FAIR      49  43  80 SE8       29.78F
ELBOW LAKE     FAIR      54  49  83 SE10      29.77F
WADENA         FAIR      52  45  76 S5        29.78F
DETROIT LAKES  FAIR      52  46  82 SE7       29.75F
MOORHEAD       FAIR      55  46  71 S14       29.70F
FERGUS FALLS   FAIR      55  48  76 SE13      29.75F
MORRIS MN      FAIR      52  48  87 SE9       29.77F
STAPLES        FAIR      52  45  76 S7        29.80F
$$
  *****  WEATHER ELSEWHERE ACROSS MINNESOTA  *****

CITY           SKY/WX    TMP DP  RH WIND       PRES   REMARKS
DULUTH         FAIR      55  40  56 SW12      29.87F
INTRNTL FALLS  FAIR      46  36  68 SE3       29.78S
ELY            FAIR      52  37  58 S3        29.85S
CLOQUET        FAIR      54  37  54 S8        29.87S
WHEATON        FAIR      52  46  82 SE15      29.74F
BRAINERD       FAIR      54  45  71 S10       29.83F
HIBBING        FAIR      35  32  88 CALM      29.84F
ALEXANDRIA     FAIR      56  49  77 S12       29.82F
SAINT CLOUD    FAIR      51  47  86 SE8       29.87F
MINNEAPOLIS    FAIR      55  50  83 SE6       29.91S
$$

  *****  WEATHER ACROSS SOUTH DAKOTA  *****

CITY           SKY/WX    TMP DP  RH WIND       PRES   REMARKS
SIOUX FALLS    FAIR      60  50  69 S12       29.85F
BROOKINGS      FAIR      56  49  77 S12       29.83F
WATERTOWN      FAIR      53  50  89 S10       29.78F
HURON          FAIR      57  50  77 S15       29.74F
SISSETON       NOT AVBL
ABERDEEN       FAIR      56  49  77 S14       29.69F
MITCHELL       FAIR      59  49  69 S15       29.78F
PIERRE         FAIR      64  47  53 S8        29.65S
MOBRIDGE       FAIR      58  48  69 SE14      29.59F
RAPID CITY     FAIR      53  27  36 S7        29.65F
$$

  *****  SOME WEATHER IN NEARBY STATES *****

CITY           SKY/WX    TMP DP  RH WIND       PRES   REMARKS
GLASGOW MT     FAIR      52  30  43 E16       29.42F
GREAT FALLS MT FAIR      54  17  23 SW10      29.43F
CHEYENNE WY    FAIR      42  28  57 NW5       29.86F
SCOTTSBLUFF NE FAIR      48  32  53 E8        29.77F
OMAHA NE       MOCLDY    57  50  77 S9        29.98F
DES MOINES IA  FAIR      59  52  77 S8        30.03R
DAVENPORT IA   FAIR      51  46  83 S3        30.12R
CHICAGO IL     FAIR      52  40  63 S5        30.14S
EAU CLAIRE WI  FAIR      46  38  73 CALM      29.97F
LA CROSSE WI   FAIR      58  47  66 S9        30.01S
$$

  *****  SOME NATIONAL WEATHER *****

CITY           SKY/WX    TMP DP  RH WIND       PRES   REMARKS
LA GUARDIA NY  FAIR      64  47  53 W9        30.07R
RALEIGH NC     FAIR      47  46  97 CALM      30.21F
ATLANTA GA     FAIR      52  47  83 CALM      30.25F
NEW ORLEANS LA FAIR      71  67  87 E6        30.13F
OKLAHOMA CITY  MOCLDY    58  52  80 SE12      30.07S
ALBUQUERQUE NM MOCLDY    53  49  86 SE8       30.06F
SALT LAKE CITY MOCLDY    65  40  39 S12       29.70F
LOS ANGELES CA FAIR      64  59  83 E6        29.91F
BOISE ID       CLOUDY    62  17  17 SE12      29.48F
SEATTLE WA     CLOUDY    50  47  89 S13       29.53R
$$

*** WEATHER ACROSS MANITOBA...SASKATCHEWAN AND ONTARIO ***
                ***ONTARIO***

CITY           SKY/WX    TMP DP  RH WIND       PRES   REMARKS
GERALDTON      CLEAR     32  30  93 E3        29.90F
THUNDER BAY    CLEAR     34  32  93 W3        29.88F
SIOUX LOOKOUT  CLEAR     46  37  71 S9        29.75F
TORONTO        PTCLDY    48  36  61 W7        30.13R
BIG TROUT LK   CLOUDY    34  34 100 E7        29.86F
PICKLE LAKE    NOT AVBL
DRYDEN         CLEAR     52  37  58 S10       29.75F
KENORA         PTCLDY    52  39  62 S9        29.72F
$$
                *** MANITOBA***

CITY           SKY/WX    TMP DP  RH WIND       PRES   REMARKS
BRANDON        PTCLDY    39  32  75 NE7       29.57F
DAUPHIN        CLEAR     43  34  70 E3        29.53F
ISLAND LAKE    PTCLDY    37  34  87 E8        29.71S
PILOT MOUND      N/A     41  34  75 SE9         N/A
THE PAS        CLOUDY    37  34  87 E3        29.57R
THOMPSON       CLOUDY    34  32  93 E7        29.71F
WINNIPEG       CLEAR     48  39  71 S10       29.63F
LYNN LAKE      CLOUDY    32  32 100 SE7       29.67S
CHURCHILL      CLOUDY    32  28  86 E9        29.93S WCI  24
GILLAM         CLOUDY    32  32 100 SE6       29.83F
$$
                ***SASKATCHEWAN***

CITY           SKY/WX    TMP DP  RH WIND       PRES   REMARKS
ESTEVAN        PTCLDY    46  30  53 SE6       29.50F
KINDERSLEY     MOCLDY    48  32  53 SE8       29.39F
LLOYDMINSTER   CLOUDY    45  37  76 S12       29.29F
PRINCE ALBERT  CLOUDY    39  32  75 E8        29.47F
REGINA         PTCLDY    46  27  46 E10       29.45F
YORKTON        CLEAR     45  32  61 SE5       29.49F
N. BATTLEFORD  MOCLDY    48  37  66 SE9       29.38F
LA RONGE       CLOUDY    39  36  87 E7        29.52S
SASKATOON      MOCLDY    50  36  57 E7        29.40F
SWIFT CURRENT  MOCLDY    48  25  40 SE9       29.38F
$$
NOTE: THESE ARE AUTOMATED STATIONS WITH LIMITED QUALITY CONTROL
      "FAIR" INDICATES FEW OR NO CLOUDS BELOW 12,000 FEET WITH NO
      SIGNIFICANT WEATHER AND/OR OBSTRUCTIONS TO VISIBILITY.
      SKY/WX - SKY CONDITION AND SIGNIFICANT WEATHER.
      TMP - AIR TEMPERATURE.    DP   - DEWPOINT TEMPERATURE.
      RH  - RELATIVE HUMIDITY.  PRES - PRESSURE.
      HX  - HEAT INDEX.         WCI  - WIND CHILL INDEX.
$




USA.gov is the U.S. government's official web portal to all federal, state and local government web resources and services.